Location: Casilda
(33.0440°S, 61.1680°W)
Time: 19:57:50
(UTC-03:00)

ISS - Pass Details

Date: 23 November 2023
Orbit: 415 x 417 km, 51.6° (Epoch: 04 December)

Event Time Altitude Azimuth Distance (km) Brightness Sun altitude
Exits shadow 04:07:44 56° 11° (N) 509 -3.6 -18.9°
Maximum altitude 04:08:06 61° 46° (NE) 483 -3.5 -18.9°
Drops below altitude 10° 04:11:28 10° 127° (SE) 1,514 0.3 -18.3°
Sets 04:13:36 0° 130° (SE) 2,384 1.8 -18.0°
